This is the latest recevied weather packets stored in our database for station/object NE8U. If no packets are shown the sender has not sent any weather packets the latest 10 day(s).
| Time | Temp. | Humidity | Pressure | Rain* | Wind** | Luminosity | Snow |
|---|---|---|---|---|---|---|---|
| 1777873532 | 22.78° C | 32% | 1014.5 hPa | 0 mm | - | 0 W/m² | - |
| 1777873230 | 22.78° C | 31% | 1014.5 hPa | 0 mm | - | 0 W/m² | - |
| 1777872926 | 22.78° C | 31% | 1014.6 hPa | 0 mm | - | 0 W/m² | - |
| 1777872624 | 23.33° C | 30% | 1014.5 hPa | 0 mm | - | 0 W/m² | - |
| 1777872321 | 23.89° C | 30% | 1014.6 hPa | 0 mm | - | 0 W/m² | - |
| 1777872019 | 23.89° C | 29% | 1014.5 hPa | 0 mm | - | 0 W/m² | - |
| 1777871715 | 23.89° C | 30% | 1014.6 hPa | 0 mm | - | 0 W/m² | - |
| 1777871411 | 23.89° C | 29% | 1014.6 hPa | 0 mm | - | 0 W/m² | - |
| 1777871109 | 23.33° C | 30% | 1014.5 hPa | 0 mm | - | 0 W/m² | - |
| 1777870805 | 23.89° C | 29% | 1014.6 hPa | 0 mm | - | 0 W/m² | - |
| 1777870502 | 23.89° C | 29% | 1014.6 hPa | 0 mm | - | 0 W/m² | - |
| 1777870197 | 23.89° C | 29% | 1014.6 hPa | 0 mm | - | 0 W/m² | - |
| 1777869895 | 23.89° C | 29% | 1014.6 hPa | 0 mm | - | 0 W/m² | - |
| 1777869592 | 23.89° C | 29% | 1014.9 hPa | 0 mm | - | 0 W/m² | - |
| 1777869289 | 24.44° C | 29% | 1014.9 hPa | 0 mm | - | 0 W/m² | - |
| 1777868987 | 24.44° C | 29% | 1014.5 hPa | 0 mm | - | 0 W/m² | - |
| 1777868683 | 24.44° C | 28% | 1014.5 hPa | 0 mm | - | 0 W/m² | - |
| 1777868380 | 25° C | 28% | 1014.3 hPa | 0 mm | - | 0 W/m² | - |
| 1777868076 | 25° C | 27% | 1014.5 hPa | 0 mm | - | 0 W/m² | - |
| 1777867772 | 25° C | 27% | 1014.6 hPa | 0 mm | - | 0 W/m² | - |
| 1777867470 | 25° C | 26% | 1014.6 hPa | 0 mm | - | 0 W/m² | - |
| 1777867165 | 25° C | 26% | 1014.1 hPa | 0 mm | - | 0 W/m² | - |
| 1777866863 | 25° C | 25% | 1014.3 hPa | 0 mm | - | 0 W/m² | - |
| 1777866560 | 25.56° C | 25% | 1013.7 hPa | 0 mm | - | 0 W/m² | - |
| 1777866257 | 25.56° C | 24% | 1013.9 hPa | 0 mm | - | 0 W/m² | - |
* Rain latest hour (hover to see other rain measurements)
** Current wind speed in m/s (hover to see current wind gust speed)